Time,TemperatureF,DewpointF,PressureIn,WindDirection,WindDirectionDegrees,WindSpeedMPH,WindSpeedGustMPH,Humidity,HourlyPrecipIn,Conditions,Clouds,dailyrainin,SoftwareType,DateUTC
2014-10-25 00:03:00,66.1,52.7,29.96,WSW,248,0.2,2.0,62,0.00,,,0.00,WUHU216HW,2014-10-25 07:03:00,
2014-10-25 00:08:00,66.1,52.7,29.96,NE,45,1.6,1.8,62,0.00,,,0.00,WUHU216HW,2014-10-25 07:08:00,
2014-10-25 00:13:00,66.1,52.7,29.96,South,180,0.7,1.6,62,0.00,,,0.00,WUHU216HW,2014-10-25 07:13:00,
2014-10-25 00:18:00,66.1,52.7,29.96,SSE,158,0.2,1.8,62,0.00,,,0.00,WUHU216HW,2014-10-25 07:18:00,
2014-10-25 00:23:00,66.1,52.7,29.96,WSW,248,0.2,1.8,62,0.00,,,0.00,WUHU216HW,2014-10-25 07:23:00,
2014-10-25 00:28:00,66.1,52.7,29.96,ENE,68,0.9,3.1,62,0.00,,,0.00,WUHU216HW,2014-10-25 07:28:00,
2014-10-25 00:33:00,66.1,52.7,29.96,NW,315,1.8,3.1,62,0.00,,,0.00,WUHU216HW,2014-10-25 07:33:00,
2014-10-25 00:38:00,66.1,52.7,29.96,WSW,248,0.4,2.0,62,0.00,,,0.00,WUHU216HW,2014-10-25 07:38:00,
2014-10-25 00:43:00,66.1,52.3,29.96,SW,225,0.0,1.8,61,0.00,,,0.00,WUHU216HW,2014-10-25 07:43:00,
2014-10-25 00:48:00,66.1,52.7,29.96,West,270,0.0,1.6,62,0.00,,,0.00,WUHU216HW,2014-10-25 07:48:00,
2014-10-25 00:53:00,66.1,52.7,29.96,SW,225,0.4,1.1,62,0.00,,,0.00,WUHU216HW,2014-10-25 07:53:00,
2014-10-25 00:58:00,66.1,52.7,29.96,WSW,248,1.3,1.3,62,0.00,,,0.00,WUHU216HW,2014-10-25 07:58:00,
2014-10-25 01:03:00,66.1,52.3,29.96,NNW,338,0.4,1.8,61,0.00,,,0.00,WUHU216HW,2014-10-25 08:03:00,
2014-10-25 01:08:00,66.2,52.8,29.96,WNW,293,0.4,2.2,62,0.00,,,0.00,WUHU216HW,2014-10-25 08:08:00,
2014-10-25 01:13:00,66.2,52.5,29.96,WNW,293,0.0,2.9,61,0.00,,,0.00,WUHU216HW,2014-10-25 08:13:00,
2014-10-25 01:18:00,66.2,52.5,29.96,South,180,0.4,2.9,61,0.00,,,0.00,WUHU216HW,2014-10-25 08:18:00,
2014-10-25 01:23:00,66.2,52.5,29.96,NW,315,2.5,3.4,61,0.00,,,0.00,WUHU216HW,2014-10-25 08:23:00,
2014-10-25 01:28:00,66.4,52.6,29.96,NNW,338,3.4,3.4,61,0.00,,,0.00,WUHU216HW,2014-10-25 08:28:00,
2014-10-25 01:33:00,66.4,52.6,29.96,ENE,68,1.1,3.4,61,0.00,,,0.00,WUHU216HW,2014-10-25 08:33:00,
2014-10-25 01:38:00,66.4,52.6,29.96,WSW,248,0.0,1.6,61,0.00,,,0.00,WUHU216HW,2014-10-25 08:38:00,
2014-10-25 01:43:00,66.4,52.6,29.96,WSW,248,0.4,1.1,61,0.00,,,0.00,WUHU216HW,2014-10-25 08:43:00,
2014-10-25 01:48:00,66.4,52.6,29.96,West,270,0.9,2.5,61,0.00,,,0.00,WUHU216HW,2014-10-25 08:48:00,
2014-10-25 01:53:00,66.6,52.7,29.96,North,0,0.4,2.5,61,0.00,,,0.00,WUHU216HW,2014-10-25 08:53:00,
2014-10-25 01:58:00,66.6,52.7,29.96,WSW,248,0.4,1.1,61,0.00,,,0.00,WUHU216HW,2014-10-25 08:58:00,